Theta_e
286 285 284 284 283 283 282 281 281 281 281 281 281 281 281 281 281 281 281 282 281 281 281 281 281 281 281 280 280 279 278 278 273 268 265 267 268 272 274 275 277 276 277
286 285 284 284 283 281 281 281 282 281 281 281 280 280 280 281 280 281 281 281 280 280 279 279 279 282 279 278 277 277 276 275 271 262 261 265 264 264 268 270 274 276 275
286 284 283 282 281 281 280 281 281 280 280 280 280 280 280 280 280 280 280 280 280 279 279 279 278 278 276 276 276 275 274 275 270 267 264 263 263 263 268 270 273 268 275
285 284 282 282 281 281 281 280 280 280 279 279 279 279 280 280 280 280 280 280 279 279 280 279 278 277 276 276 276 275 273 271 268 264 263 263 262 266 265 269 273 274 271
284 283 282 282 282 281 280 280 280 280 279 279 279 279 279 279 280 280 280 279 279 278 279 280 280 279 282 280 278 276 274 265 264 266 266 264 264 266 266 268 272 274 271
285 284 283 283 282 281 281 280 280 279 279 279 279 278 278 280 284 284 281 279 279 279 278 278 279 279 281 282 283 282 278 273 266 266 262 265 263 263 267 271 273 273 269
285 284 283 282 281 280 280 280 279 279 279 279 278 278 278 279 286 285 284 279 278 278 277 278 278 278 277 277 280 280 279 280 277 271 268 269 267 268 271 273 273 273 271
284 284 283 282 281 280 280 280 279 279 279 278 278 279 278 280 286 286 284 278 278 278 278 278 277 277 276 275 274 273 273 274 275 276 272 270 272 274 273 274 273 273 274
283 283 283 282 281 280 280 279 279 279 279 279 280 279 279 279 285 286 283 278 278 278 278 277 277 276 280 280 275 274 273 273 278 280 279 278 278 278 276 273 270 268 265
284 283 282 282 281 280 280 280 279 280 280 280 281 279 280 280 285 285 283 279 278 278 278 278 279 277 281 282 275 274 272 272 273 273 273 273 273 274 275 271 271 267 265
284 283 282 282 281 281 280 280 280 280 280 279 280 280 280 280 281 286 286 279 279 278 278 277 279 281 282 282 280 274 274 274 277 273 271 271 271 271 271 271 271 269 266
284 283 282 281 281 281 279 280 279 279 279 278 278 279 280 281 282 285 286 285 281 279 278 278 278 282 283 283 280 279 280 277 271 268 267 268 268 268 269 269 271 270 270
280 278 277 278 280 280 279 279 278 278 278 278 278 278 278 280 281 285 286 286 285 280 279 280 281 282 283 282 281 281 276 271 269 264 264 266 267 267 265 264 263 262 262
276 275 275 276 277 277 280 280 279 278 278 278 278 278 278 279 280 281 282 284 285 284 282 280 281 281 281 278 274 277 273 272 271 268 265 262 261 262 261 263 261 259 259
275 275 275 276 275 275 278 279 279 280 281 279 279 279 278 277 280 283 283 282 282 283 274 274 276 274 271 270 270 269 268 266 268 263 262 261 260 260 261 258 257 256 259
276 274 276 275 273 275 275 276 282 284 284 285 285 282 281 284 285 285 285 285 285 285 270 274 277 276 275 274 272 271 266 266 267 265 261 262 262 262 260 258 256 256 258
277 276 274 274 273 273 272 273 276 278 285 285 286 286 286 284 285 286 286 286 286 286 278 278 277 277 276 275 273 271 270 269 268 267 267 265 261 257 259 258 257 256 256
275 273 272 275 275 274 274 276 278 281 281 282 285 286 286 286 286 286 286 286 283 284 282 279 278 278 277 276 274 272 271 267 268 268 267 266 263 260 256 257 259 258 256
274 275 275 272 273 276 281 282 283 282 282 282 283 284 284 286 287 287 287 284 282 281 282 282 280 279 278 276 276 274 273 271 270 267 268 267 266 263 261 261 262 260 257
267 271 271 270 271 273 279 281 281 282 282 282 282 282 283 283 282 283 284 284 283 283 283 282 282 281 279 278 277 275 273 272 271 270 269 268 267 266 266 264 262 259 259
266 266 269 267 268 275 279 280 281 282 282 282 282 283 285 282 282 282 282 283 283 283 283 283 283 283 281 279 278 276 275 274 273 272 271 269 268 266 267 266 266 264 257
265 265 265 266 268 274 279 280 281 282 282 282 283 284 285 284 283 282 283 283 284 285 285 285 284 284 283 280 279 277 276 275 275 274 272 271 269 268 267 265 265 264 262
262 262 263 267 267 272 276 279 280 281 282 283 283 283 283 283 283 283 283 284 284 284 285 285 285 284 284 283 281 280 278 277 277 276 274 272 270 269 268 267 265 265 262
267 274 275 276 277 278 278 279 280 280 281 282 283 283 283 283 283 283 284 284 284 284 285 285 285 285 285 284 282 281 281 281 280 278 276 273 271 270 269 268 267 267 266
263 265 266 269 273 271 273 277 278 279 281 281 282 283 284 284 284 284 284 284 285 284 285 285 285 285 285 285 284 282 281 281 281 279 277 275 273 271 270 269 269 268 266
260 261 262 266 272 275 276 277 276 275 280 281 281 282 283 283 284 284 284 284 284 284 285 285 285 285 285 285 285 284 282 281 280 280 278 275 273 272 271 270 269 269 267
Wind_Speed
6 5 6 6 6 6 5 5 5 5 5 5 5 6 5 6 5 6 5 6 5 5 4 5 6 4 4 4 4 3 3 3 2 5 2 4 5 9 12 10 11 13 13
6 6 6 6 6 6 5 5 5 5 5 6 6 6 5 5 5 6 6 5 5 5 4 5 5 3 5 4 4 4 3 3 3 1 3 4 2 4 5 6 8 8 11
7 6 6 6 6 6 6 6 5 6 5 5 5 6 6 5 5 5 5 6 5 5 4 3 5 4 4 3 4 4 3 4 2 2 3 2 3 3 5 4 6 5 7
7 7 7 7 6 6 5 5 5 5 6 5 5 5 5 5 5 5 5 5 5 5 3 2 4 5 4 4 4 4 4 3 3 3 2 3 2 5 2 4 9 5 7
7 7 6 5 5 5 5 5 5 5 5 5 5 5 5 5 4 6 5 6 5 6 3 2 2 5 7 5 3 4 3 2 2 3 3 2 3 4 4 4 3 4 3
8 7 6 6 6 6 6 5 5 5 5 5 5 5 5 3 10 10 7 5 5 5 5 3 3 3 6 8 9 11 6 2 2 3 1 2 3 2 3 4 4 4 5
7 6 7 7 7 7 6 6 6 5 5 5 6 6 6 5 10 11 10 5 4 4 5 4 3 2 3 5 6 9 7 8 6 3 3 1 2 3 4 4 3 3 2
7 7 7 7 8 7 7 7 6 5 6 5 6 6 5 5 11 11 10 5 4 5 5 6 5 4 5 5 4 4 3 2 2 1 2 2 3 3 4 3 3 3 2
7 7 8 8 7 7 8 7 5 5 5 5 4 6 6 5 13 13 10 5 5 5 5 5 5 5 8 10 5 4 4 1 2 4 5 8 8 12 13 3 5 4 3
8 9 8 8 9 9 8 8 4 4 6 5 6 6 6 6 13 15 12 4 4 4 4 5 8 6 10 11 5 5 5 4 3 1 2 3 6 7 11 6 3 3 2
4 5 6 6 8 7 6 5 6 7 5 6 7 5 7 7 8 16 17 6 5 4 4 4 4 12 12 12 10 5 6 6 5 2 0 1 2 3 3 4 5 3 2
5 5 5 5 5 5 6 5 5 6 6 5 6 5 5 7 11 16 18 17 11 6 7 5 5 14 13 12 8 10 10 7 3 3 0 2 0 1 2 2 3 3 3
3 3 3 4 4 5 6 5 4 6 6 6 6 6 6 5 6 19 19 19 17 8 3 8 12 14 14 11 12 12 6 3 3 3 3 2 2 2 0 2 2 2 1
3 3 3 4 4 4 4 5 5 6 6 6 7 7 6 5 7 7 8 9 16 11 10 6 8 10 10 6 2 7 3 4 4 3 4 2 0 1 1 1 1 2 3
2 2 3 3 4 4 4 6 6 7 9 7 8 8 7 8 10 13 13 10 9 11 4 2 2 2 3 2 3 3 2 2 4 3 2 3 2 1 2 1 2 1 3
2 2 3 4 3 3 4 5 13 15 15 20 18 12 8 16 14 19 23 22 21 19 2 5 8 9 9 8 8 7 4 6 6 4 2 3 4 4 3 1 2 2 3
4 3 2 2 2 3 3 4 7 6 19 21 21 21 22 15 17 17 21 21 22 19 9 9 10 10 10 10 9 9 8 8 5 6 6 5 3 2 4 3 2 2 2
3 4 3 3 3 3 4 5 5 7 9 7 11 19 21 22 21 19 21 17 9 17 12 11 11 11 11 11 9 9 8 4 7 7 7 6 5 4 3 4 4 4 3
2 2 3 2 3 5 5 6 7 8 9 8 8 10 10 19 22 22 23 12 11 12 13 13 11 11 10 10 10 9 9 9 8 7 8 8 7 6 5 4 4 7 5
3 5 3 2 2 3 5 6 7 8 8 7 8 10 5 6 7 9 10 11 11 11 12 13 12 11 10 11 10 9 9 9 9 9 9 8 8 8 8 6 6 4 6
2 2 4 2 3 4 5 6 8 7 8 8 8 8 13 7 8 8 9 10 12 12 12 12 11 11 10 10 10 10 11 10 10 9 9 9 9 9 9 8 7 7 3
3 2 2 3 3 3 6 5 6 7 8 8 8 8 16 8 8 8 9 10 10 10 10 11 10 11 10 11 11 11 11 11 10 10 10 10 9 9 8 8 8 7 6
1 1 2 3 3 5 5 6 7 7 8 9 8 8 8 8 8 9 9 9 9 9 9 9 10 10 10 10 11 12 12 13 12 10 11 10 10 10 10 10 10 8 8
4 4 3 3 3 4 5 6 6 8 8 8 8 8 8 8 8 10 10 9 9 10 9 10 10 14 12 12 10 11 12 12 10 11 15 11 11 11 10 10 10 12 10
3 3 3 3 3 3 3 5 6 6 7 7 7 8 8 8 8 8 9 9 10 10 11 11 10 14 17 18 16 16 17 19 16 13 10 13 13 14 12 11 11 10 10
4 4 3 3 4 7 6 7 7 6 7 6 7 7 8 8 8 8 9 9 9 10 12 10 12 18 19 16 18 20 20 20 18 19 12 12 12 12 11 13 15 10 11
Wind_Direction
157 153 146 147 140 139 141 151 155 143 141 132 128 116 112 109 109 102 99 95 89 79 57 73 68 45 48 37 39 15 18 25 90 304 271 303 329 358 345 346 359 7 7
160 153 157 146 145 148 153 160 157 149 145 140 136 127 126 127 128 123 115 106 105 96 86 83 72 59 53 32 47 21 22 14 117 254 301 312 322 321 289 330 349 357 5
154 151 149 153 156 166 167 165 162 149 146 146 138 141 141 137 129 126 125 118 113 105 94 100 101 80 64 55 57 31 17 21 52 97 294 303 294 328 332 328 339 328 6
154 157 166 173 173 169 161 160 156 154 152 161 159 149 146 145 141 138 132 117 118 108 90 75 102 97 93 85 77 51 35 9 24 45 2 319 331 307 319 350 354 353 6
164 167 178 162 156 155 159 160 160 167 171 166 153 160 159 164 162 157 153 138 141 125 115 118 75 101 106 95 92 75 46 18 41 43 35 351 345 344 354 305 299 321 341
173 178 160 158 160 168 166 167 169 176 172 165 178 180 179 188 181 173 163 156 166 151 149 196 166 115 112 97 88 89 81 22 29 90 347 33 305 262 302 315 325 3 358
173 169 171 168 170 173 165 167 179 179 169 186 192 190 197 205 194 182 173 167 179 169 157 181 183 148 141 121 102 91 63 59 66 152 122 9 350 279 296 306 338 353 337
174 175 174 174 178 168 167 178 177 173 188 189 197 199 200 212 206 196 176 181 177 180 175 204 177 185 194 166 153 117 95 2 339 56 113 184 223 289 323 283 283 306 341
180 185 182 177 173 172 183 184 178 175 184 197 202 198 203 211 206 203 181 183 189 193 174 215 193 187 200 184 164 155 134 68 351 105 87 71 46 35 28 336 19 45 344
188 194 180 178 178 184 184 181 166 177 197 195 205 203 204 213 213 209 195 178 197 205 181 212 215 203 209 208 193 176 174 190 192 241 354 33 49 34 33 32 342 50 40
182 172 177 179 184 184 171 168 174 187 182 197 210 205 213 206 218 214 212 199 190 207 202 198 218 215 212 217 211 203 196 163 163 151 95 342 37 50 24 17 26 51 67
168 186 187 186 181 167 171 178 176 177 190 201 205 215 219 213 212 222 220 215 208 201 209 211 193 220 215 217 208 221 185 157 129 126 122 272 216 339 21 354 22 51 44
115 186 183 164 179 170 172 180 172 181 194 205 208 220 224 208 216 221 224 225 221 222 212 214 206 221 222 219 211 206 186 150 160 147 200 235 234 199 237 53 358 348 319
179 212 197 188 192 180 183 187 192 193 202 208 210 218 218 208 214 213 216 222 229 222 218 221 215 209 218 214 218 219 167 193 190 198 191 199 296 322 114 113 104 357 39
213 231 220 197 195 196 213 201 210 219 206 207 215 212 207 214 220 209 206 209 204 215 136 109 164 170 211 208 244 233 204 211 207 199 189 181 177 140 257 141 126 106 116
239 226 228 195 187 222 205 245 242 239 233 236 233 218 222 232 225 216 219 221 219 209 124 200 211 203 221 217 221 224 210 210 225 194 194 208 191 181 188 287 110 120 156
234 231 223 234 187 196 218 221 258 265 246 248 248 246 241 233 231 224 220 223 229 217 213 217 220 212 214 218 220 216 218 211 182 210 200 204 196 181 164 181 191 147 207
249 230 205 224 214 204 204 224 229 256 273 266 248 246 248 245 242 232 233 229 223 224 221 223 220 220 215 217 215 220 220 184 199 208 210 200 194 181 181 201 191 181 193
264 253 239 225 230 226 235 235 243 254 263 264 274 258 246 245 244 239 236 229 222 218 220 223 223 227 221 217 216 217 215 210 203 198 208 204 197 184 229 218 198 187 159
264 267 252 240 241 238 255 255 258 257 254 258 264 271 258 220 237 239 228 225 228 226 226 227 222 224 222 218 215 211 213 212 204 207 209 203 201 197 212 202 198 183 201
216 244 247 252 248 253 261 258 267 261 258 260 257 257 256 230 239 244 243 234 238 237 228 227 230 225 220 220 216 212 215 215 212 209 210 204 196 205 208 204 197 204 177
197 227 228 232 242 264 278 262 265 267 265 262 262 257 249 243 237 237 238 243 244 239 238 236 231 225 220 217 218 216 217 220 216 206 208 209 201 206 198 198 201 196 188
163 264 290 281 250 259 272 277 280 277 274 270 264 258 248 235 233 235 236 239 241 244 243 236 237 234 226 218 215 218 218 221 220 208 208 204 201 203 199 204 198 195 195
202 208 223 244 258 273 278 277 272 268 270 278 274 265 259 256 246 243 240 235 233 234 233 236 239 245 241 229 218 217 226 228 219 214 201 203 207 201 199 205 201 206 203
234 222 216 231 248 242 268 278 280 277 270 269 271 272 269 262 260 252 249 250 248 240 234 230 234 237 242 240 233 223 220 225 223 217 203 207 208 200 204 207 203 206 196
233 235 233 245 267 274 277 285 281 265 277 286 279 280 273 272 264 257 253 249 250 250 248 244 235 232 237 239 238 234 226 222 217 214 207 208 206 207 202 206 204 205 200